Weather in Kalininskoye

Russia / Saratov Oblast     51°30′52″N   47°05′24″E
temp.,
°C
wind,
m/s
gust,
m/s
humid.,
%
clouds,
%
prec.,
mm/h
press.,
hPa
HPBL,
m
10 may, mon
mon1001:00+16wsw3665100 0.0 1010110
04:00+15ne3469100 0.0 101081
07:00+16ese41362100 0.0 1010373
10:00+20ese61446100 0.0 1011813
13:00+24ese81438100 0.0 10111925
16:00+24e91439100 0.0 10111522
19:00+16s4979100 0.6 1014351
22:00+15s2389100 1.9 101580
11 may, tue
tue1101:00+17ese61470100 0.0 1014603
04:00+10s4688100 0.1 1017328
07:00+9ssw468985 1.1 1021517
10:00+13s45560 1.1 10231012
13:00+16sse35430 0.0 10251390
16:00+18sse23361 0.0 10251541
19:00+18e234392 0.0 1025123
22:00+15ne4850100 0.0 1025226
12 may, wed
wed1201:00+12ne51085100 0.3 1025504
04:00+13ene61593100 1.3 1023732
07:00+15e81778100 0.5 1022760
10:00+16ese71464100 0.5 1022658
13:00+18ese81260100 0.0 1023890
16:00+20ese7135787 0.0 10231247
19:00+19ese6126644 0.0 1023844
22:00+18e61458100 0.0 1022441
13 may, thu
thu1301:00+17e61554100 0.0 1022417
04:00+17e71651100 0.0 1021425
07:00+16ese61455100 0.0 1022420
10:00+18se5856100 0.0 1022375
13:00+23ese71045100 0.0 1022972
16:00+25se81142100 0.0 10221334
19:00+23ese6114617 0.0 1021378
22:00+19ese6145946 0.0 1022281
14 may, fri
fri1401:00+18ese6155278 0.0 1022288
04:00+16se5145336 0.0 1022246
07:00+17se5125653 0.0 1023273
10:00+23se69365 0.0 1023560
13:00+28se79271 0.0 10221262
16:00+28sse79250 0.0 10221958
19:00+25se48405 0.0 1021186
22:00+20se410496 0.0 1021139